Regional Weather Roundup
Issued by NWS Huntsville, AL

Home | Current Version | Previous Version | Text Only | Print | Product List | Glossary On
Versions: 1 2 3 4 5 6 7 8 9 10 11 12 13 14 15 16 17 18 19 20 21 22 23 24 25 26 27 28 29 30 31 32 33 34 35 36 37 38 39 40 41 42 43 44 45 46 47 48 49 50
000
ASUS44 KHUN 011310
RWRHUN

WEATHER ROUNDUP FOR THE TENNESSEE VALLEY
NATIONAL WEATHER SERVICE HUNTSVILLE AL
700 AM CST SUN FEB 01 2015

ALZ001>004-011400-
NORTHWEST ALABAMA

CITY           SKY/WX    TMP DP  RH WIND       PRES   REMARKS
SHOALS AIRPORT LGT RAIN  49  31  49 S10       30.06S
$$

ALZ005>007-016-011400-
NORTH CENTRAL ALABAMA

CITY           SKY/WX    TMP DP  RH WIND       PRES   REMARKS
DECATUR AP     CLOUDY    47  29  49 SE14      30.08F
HUNTSVILLE AP  CLOUDY    48  27  44 SE12      30.09S
HUN NWS/UAH      N/A     47  24  39 S7          N/A
MERIDIANVILLE  CLOUDY    46  21  36 SE8       30.09S
REDSTONE ARSN  CLOUDY    47  27  46 S9        30.08F
$$

ALZ008>010-011400-
NORTHEAST ALABAMA

CITY           SKY/WX    TMP DP  RH WIND       PRES   REMARKS
ALBERTVILLE    CLOUDY    45  32  61 SE6       30.10S
FORT PAYNE     CLOUDY    45  19  36 CALM      30.13S
SCOTTSBORO AP  CLOUDY    48  25  40 SW5       30.13S
VALLEY HEAD      N/A     45 N/A N/A MISG        N/A
$$

TNZ076-096-097-011400-
SOUTHEASTERN MIDDLE TENNESSEE

CITY           SKY/WX    TMP DP  RH WIND       PRES   REMARKS
TULLAHOMA      PTCLDY    46  23  39 S12       30.06F
WINCHESTER     MOCLDY    46  27  46 S15       30.08F
$$

...SURROUNDING SITES...

CITY           SKY/WX    TMP DP  RH WIND       PRES   REMARKS
ATLANTA        MOCLDY    40  30  67 SE6       30.20S
ANNISTON       MOCLDY    47  33  58 NE6       30.14R
BIRMINGHAM     CLOUDY    49  31  49 S13       30.15S
CHATTANOOGA    CLOUDY    38  30  73 E5        30.15S WCI  34
DALTON         CLOUDY    43  27  52 CALM      30.17R
GADSDEN        CLOUDY   N/A N/A N/A CALM      30.14S
GOLDEN TRNGL   LGT RAIN  45  37  76 SE12      30.05F FOG
HALEYVILLE     LGT RAIN  43  32  65 S10       30.09R
JACKSON TN     LGT RAIN  46  40  79 S9G21     29.93F
LEWISBURG      MOCLDY    48  25  41 S13       30.03F
MEMPHIS        LGT RAIN  50  46  87 S18G28    29.87F
MURFREESBORO   MOCLDY    49  24  37 S13       30.03F
NASHVILLE      CLOUDY    49  26  41 S16       30.02F
OXFORD MS      CLOUDY    46  46 100 SE15      29.94F FOG
ROME           CLOUDY    37  30  75 CALM      30.16S
SAVANNAH       CLOUDY    48  34  57 S15       29.98F
TUPELO         LGT RAIN  47  42  83 S14       30.01F
TUSCALOOSA     CLOUDY    50  30  46 VRB7      30.10F
$$

...GULF COAST WEATHER...

CITY           SKY/WX    TMP DP  RH WIND       PRES   REMARKS
GULFPORT       LGT RAIN  60  56  86 SE7       30.04F
PASCAGOULA     CLOUDY    52  51  97 CALM      30.07R
MOBILE         MOCLDY    49  47  93 E5        30.08R
GULF SHORES    MOSUNNY   61  56  84 SE9       30.07S
PENSACOLA      PTCLDY    63  57  81 S10       30.08S
DESTIN         CLOUDY    56  53  90 E12G20    30.10S
PANAMA CITY    PTCLDY    54  52  94 E9        30.15F
APPALACHICOLA  MOCLDY    62  55  77 SE12      30.17S
$$




USA.gov is the U.S. government's official web portal to all federal, state and local government web resources and services.